sat.trackr.live / text

‹ back to catalog

LONGJIANG 3

NORAD 56874 · 2023-082A

PAYLOAD ACTIVE UNKNOWN

§ Identity

Operator
Country
PRC
Launch date
2023-06-09
Launch site
JSC
Launch vehicle
Mass (kg)
RCS (m²)

External: N2YO · Heavens-Above · Gunter

§ Orbital elements

Epoch: 2026-05-25T05:20:03.144768Z

Period
93.42 min
Inclination
49.1070°
Eccentricity
0.0005932
Mean motion
15.41379857 rev/d
Perigee alt
438.0 km
Apogee alt
446.1 km
Semi-major
6,820.2 km
B*
4.4714e-4
RAAN
163.6340°
Arg perigee
306.7859°
Mean anomaly
53.2546°
Rev number
16,582

§ Raw data

LONGJIANG 31 56874U 23082A   26145.22225862  .00018673  00000+0  44714-3 0  99992 56874  49.1070 163.6340 0005932 306.7859  53.2546 15.41379857165820

JSON: /api/v1/satellites/56874 · /tle

For live sub-satellite position, see the globe view (requires WebGL).

§ Visibility from observer

Set your observer location to see the next 7 days of passes ≥ 10°. The values pass through the URL so the page stays shareable.

No JS? Fill the form by hand. The geolocation button needs JavaScript.